When you browse on this site, cookies collect data to enhance your experience and personalize the content and advertising you see.
Visit our Privacy Policy to learn more. By continuing to use the site, you agree to this use of cookies and data.
  • In Hungary
  • List of Countries
  • For 7 days
  • Water Temperature
  • Weather Map
  • News
  • Weather Widgets
  • user-avatar
    Login

    Hourly Weather Artyuhi

    Today, 26 January, Sunday

    Time Temperature Precipitation Wind Pressure Humidity
    00:00 -5°C° 0 mm 5 mps 731 mmHg 78%
    01:00 -5°C° 0 mm 5 mps 731 mmHg 79%
    02:00 -4°C° 0 mm 4 mps 732 mmHg 79%
    03:00 -4°C° 0 mm 4 mps 732 mmHg 81%
    04:00 -4°C° 0 mm 4 mps 733 mmHg 82%
    05:00 -5°C° 0 mm 3 mps 733 mmHg 84%
    06:00 -5°C° 0 mm 3 mps 733 mmHg 84%
    07:00 -5°C° 0 mm 3 mps 734 mmHg 85%
    08:00 -4°C° 0 mm 3 mps 734 mmHg 80%
    09:00 -4°C° 0 mm 3 mps 734 mmHg 79%
    10:00 -3°C° 0 mm 4 mps 733 mmHg 78%
    11:00 -3°C° 0 mm 4 mps 733 mmHg 78%
    12:00 -4°C° 0 mm 5 mps 733 mmHg 79%
    13:00 -2°C° 0 mm 5 mps 732 mmHg 81%
    14:00 -3°C° 0 mm 6 mps 731 mmHg 82%
    15:00 -3°C° 0.4 mm 6 mps 731 mmHg 86%
    16:00 -2°C° 0.4 mm 6 mps 731 mmHg 91%
    17:00 -2°C° 0.4 mm 6 mps 730 mmHg 95%
    18:00 -1°C° 0.1 mm 6 mps 730 mmHg 92%
    19:00 -1°C° 0.1 mm 6 mps 730 mmHg 90%
    20:00 +1°C° 0.1 mm 6 mps 730 mmHg 88%
    21:00 +1°C° 0 mm 6 mps 731 mmHg 89%
    22:00 +1°C° 0 mm 5 mps 731 mmHg 90%
    23:00 +1°C° 0 mm 5 mps 731 mmHg 92%

    Tomorrow, 27 January, Monday

    Time Temperature Precipitation Wind Pressure Humidity
    00:00 0°C° 0.1 mm 5 mps 732 mmHg 93%
    01:00 0°C° 0.1 mm 4 mps 732 mmHg 94%
    02:00 0°C° 0.1 mm 4 mps 733 mmHg 96%
    03:00 +1°C° 0.1 mm 3 mps 733 mmHg 96%
    04:00 +1°C° 0.1 mm 3 mps 733 mmHg 97%
    05:00 +2°C° 0.1 mm 2 mps 734 mmHg 97%
    06:00 +1°C° 0.1 mm 2 mps 734 mmHg 97%
    07:00 -1°C° 0.1 mm 2 mps 734 mmHg 97%
    08:00 +1°C° 0.1 mm 1 mps 734 mmHg 97%
    09:00 +1°C° 0.1 mm 1 mps 735 mmHg 97%
    10:00 +1°C° 0.1 mm 1 mps 735 mmHg 96%
    11:00 -2°C° 0.1 mm 2 mps 735 mmHg 95%
    12:00 -1°C° 0.5 mm 2 mps 735 mmHg 95%
    13:00 -1°C° 0.5 mm 2 mps 735 mmHg 96%
    14:00 -1°C° 0.5 mm 2 mps 735 mmHg 97%
    15:00 -1°C° 0.6 mm 2 mps 735 mmHg 97%
    16:00 -2°C° 0.6 mm 2 mps 735 mmHg 97%
    17:00 -2°C° 0.6 mm 2 mps 735 mmHg 97%
    18:00 -2°C° 0.5 mm 2 mps 735 mmHg 97%
    19:00 -2°C° 0.5 mm 2 mps 734 mmHg 97%
    20:00 -2°C° 0.5 mm 3 mps 734 mmHg 97%
    21:00 -2°C° 0.5 mm 2 mps 734 mmHg 97%
    22:00 -2°C° 0.5 mm 2 mps 734 mmHg 97%
    23:00 -2°C° 0.5 mm 2 mps 734 mmHg 97%

    Day after tomorrow, 28 January, Tuesday

    Time Temperature Precipitation Wind Pressure Humidity
    00:00 -1°C° 0.5 mm 2 mps 734 mmHg 97%
    01:00 -1°C° 0.5 mm 2 mps 733 mmHg 98%
    02:00 -1°C° 0.5 mm 2 mps 733 mmHg 98%
    03:00 -1°C° 0.2 mm 2 mps 733 mmHg 98%
    04:00 -1°C° 0.2 mm 2 mps 732 mmHg 98%
    05:00 +1°C° 0.2 mm 1 mps 732 mmHg 98%
    06:00 +1°C° 0.2 mm 1 mps 732 mmHg 98%
    07:00 +1°C° 0.2 mm 1 mps 732 mmHg 98%
    08:00 +1°C° 0.2 mm 1 mps 732 mmHg 98%
    09:00 -1°C° 0.2 mm 2 mps 732 mmHg 97%
    10:00 -1°C° 0.2 mm 2 mps 732 mmHg 97%
    11:00 -1°C° 0.2 mm 2 mps 732 mmHg 96%
    12:00 -1°C° 0 mm 2 mps 732 mmHg 96%
    13:00 -1°C° 0 mm 2 mps 731 mmHg 95%
    14:00 +1°C° 0 mm 1 mps 731 mmHg 95%
    15:00 +1°C° 0.1 mm 1 mps 731 mmHg 96%
    16:00 0°C° 0.1 mm 1 mps 731 mmHg 97%
    17:00 0°C° 0.1 mm 1 mps 731 mmHg 97%
    18:00 0°C° 0 mm 1 mps 731 mmHg 97%
    19:00 0°C° 0 mm 1 mps 731 mmHg 97%
    20:00 0°C° 0 mm 1 mps 731 mmHg 97%
    21:00 -2°C° 0.1 mm 2 mps 731 mmHg 97%
    22:00 -1°C° 0.1 mm 2 mps 731 mmHg 97%
    23:00 -1°C° 0.1 mm 2 mps 731 mmHg 98%

    29 January, Wednesday

    Time Temperature Precipitation Wind Pressure Humidity
    00:00 -1°C° 0.1 mm 2 mps 731 mmHg 98%
    01:00 -1°C° 0.1 mm 2 mps 731 mmHg 98%
    02:00 -1°C° 0.1 mm 2 mps 731 mmHg 98%
    03:00 +1°C° 0 mm 2 mps 730 mmHg 97%
    04:00 +1°C° 0 mm 2 mps 730 mmHg 97%
    05:00 +1°C° 0 mm 2 mps 730 mmHg 97%
    06:00 -1°C° 0 mm 3 mps 730 mmHg 97%
    07:00 -1°C° 0 mm 3 mps 730 mmHg 96%
    08:00 -1°C° 0 mm 3 mps 730 mmHg 96%
    09:00 -1°C° 0 mm 3 mps 730 mmHg 95%
    10:00 -1°C° 0 mm 3 mps 730 mmHg 95%
    11:00 -3°C° 0 mm 4 mps 730 mmHg 94%
    12:00 -2°C° 0 mm 4 mps 729 mmHg 93%
    13:00 -2°C° 0 mm 4 mps 729 mmHg 92%
    14:00 -2°C° 0 mm 4 mps 729 mmHg 91%
    15:00 -2°C° 0 mm 4 mps 729 mmHg 91%
    16:00 -1°C° 0 mm 3 mps 729 mmHg 92%
    17:00 -1°C° 0 mm 3 mps 728 mmHg 93%
    18:00 -1°C° 0 mm 3 mps 728 mmHg 93%
    19:00 -1°C° 0 mm 3 mps 728 mmHg 94%
    20:00 -1°C° 0 mm 3 mps 728 mmHg 94%
    21:00 -1°C° 0.1 mm 3 mps 727 mmHg 95%
    22:00 0°C° 0.1 mm 3 mps 727 mmHg 95%
    23:00 -1°C° 0.1 mm 4 mps 727 mmHg 96%

    30 January, Thursday

    Time Temperature Precipitation Wind Pressure Humidity
    00:00 -1°C° 0.1 mm 4 mps 726 mmHg 96%
    01:00 -2°C° 0.1 mm 4 mps 726 mmHg 96%
    02:00 -2°C° 0.1 mm 4 mps 726 mmHg 97%
    03:00 -2°C° 0.1 mm 4 mps 726 mmHg 95%
    04:00 -2°C° 0.1 mm 4 mps 725 mmHg 94%
    05:00 -3°C° 0.1 mm 4 mps 725 mmHg 92%
    06:00 -3°C° 0 mm 4 mps 724 mmHg 92%
    07:00 -3°C° 0 mm 4 mps 724 mmHg 91%
    08:00 -4°C° 0 mm 4 mps 724 mmHg 91%
    09:00 -4°C° 0.1 mm 4 mps 724 mmHg 91%
    10:00 -4°C° 0.1 mm 4 mps 723 mmHg 92%
    11:00 -4°C° 0.1 mm 4 mps 723 mmHg 92%
    12:00 -4°C° 0.3 mm 4 mps 723 mmHg 92%
    13:00 -4°C° 0.3 mm 4 mps 723 mmHg 93%
    14:00 -4°C° 0.3 mm 4 mps 723 mmHg 94%
    15:00 -4°C° 0.3 mm 3 mps 723 mmHg 94%
    16:00 -4°C° 0.3 mm 3 mps 723 mmHg 94%
    17:00 -4°C° 0.3 mm 3 mps 723 mmHg 94%
    18:00 -4°C° 0.1 mm 2 mps 723 mmHg 94%
    19:00 -4°C° 0.1 mm 2 mps 723 mmHg 94%
    20:00 -4°C° 0.1 mm 2 mps 723 mmHg 95%
    21:00 -4°C° 0.1 mm 2 mps 724 mmHg 95%
    22:00 -2°C° 0.1 mm 1 mps 724 mmHg 95%
    23:00 -2°C° 0.1 mm 1 mps 724 mmHg 96%

    31 January, Friday

    Time Temperature Precipitation Wind Pressure Humidity
    00:00 -2°C° 0.1 mm 1 mps 724 mmHg 96%
    01:00 -3°C° 0.1 mm 1 mps 724 mmHg 96%
    02:00 -3°C° 0.1 mm 1 mps 724 mmHg 96%
    03:00 -3°C° 0 mm 1 mps 725 mmHg 96%
    04:00 -3°C° 0 mm 0 mps 725 mmHg 96%
    05:00 -3°C° 0 mm 0 mps 725 mmHg 96%
    06:00 -3°C° 0 mm 0 mps 725 mmHg 96%
    07:00 -3°C° 0 mm 0 mps 725 mmHg 96%
    08:00 -3°C° 0 mm 0 mps 725 mmHg 97%
    09:00 -3°C° 0 mm 0 mps 726 mmHg 94%
    10:00 -2°C° 0 mm 0 mps 726 mmHg 92%
    11:00 -1°C° 0 mm 0 mps 726 mmHg 90%
    12:00 -1°C° 0 mm 0 mps 726 mmHg 90%
    13:00 -1°C° 0 mm 0 mps 727 mmHg 90%
    14:00 0°C° 0 mm 1 mps 727 mmHg 90%
    15:00 0°C° 0 mm 1 mps 727 mmHg 92%
    16:00 -1°C° 0 mm 1 mps 728 mmHg 93%
    17:00 -1°C° 0 mm 1 mps 728 mmHg 95%
    18:00 -2°C° 0 mm 1 mps 728 mmHg 96%
    19:00 -2°C° 0 mm 1 mps 729 mmHg 96%
    20:00 -2°C° 0 mm 1 mps 729 mmHg 96%
    21:00 -3°C° 0 mm 1 mps 730 mmHg 96%
    22:00 -3°C° 0 mm 1 mps 730 mmHg 97%
    23:00 -3°C° 0 mm 1 mps 731 mmHg 97%
    Show more